Preview of NWS' New Version of Forecast
This preview is not operational and should not be used for support decisions.

Regional Weather Roundup (RWR)

Issued by National Weather Service (NWS)

                            
000
ASUS42 KTBW 180018
RWRFL 
FLORIDA REGIONAL WEATHER ROUNDUP
NATIONAL WEATHER SERVICE TAMPA BAY RUSKIN FL
800 PM EDT WED JUL 17 2019

NOTE: "FAIR" INDICATES FEW OR NO CLOUDS BELOW 12,000 FEET WITH NO
SIGNIFICANT WEATHER AND/OR OBSTRUCTIONS TO VISIBILITY.

FLZ001>010-012>015-112-114-115-180100-
PANHANDLE FLORIDA
  
CITY           SKY/WX    TMP DP  RH WIND       PRES   REMARKS
PENSACOLA      FAIR      89  74  60 SW10      30.06R HX  98           
PENSACOLA NAS  FAIR      85  77  77 SW10      30.06S HX  95           
MILTON NAS     FAIR      88  76  67 S12       30.06R HX  99           
CRESTVIEW      FAIR      91  72  53 SW10      30.07S HX  98           
DUKE FIELD     FAIR      90  73  56 SW13      30.06R HX  98           
VALPARAISO     FAIR      88  73  62 SW7       30.06S HX  95           
MARY ESTHER    PTCLDY    87  75  66 SW5       30.05S HX  96           
TRI COUNTY     FAIR      88  75  65 S6        30.07R HX  97           
PANAMA CITY    FAIR      86  74  67 S8        30.06S                  
TYNDALL AFB    FAIR      86  76  72 W7        30.06F HX  97           
APALACHICOLA   FAIR      86  76  71 CALM      30.07F HX  96           

STATION/POSITION SKY/WX   TEMP    WIND        PRES    WAVE   SWELL
                          AIR SEA DIR/SP/G            HT/PER HT/PER
                          (F)     (DEG/KT/KT) (MB)    (FT/S) (FT/S)
30.1N   87.6W              85 87  220/  6/ 10 1018.2F   1/ 6   2/ 6
29.2N   88.2W              86 85  110/  2/  4 1018.6S   2/ 6   2/ 6
28.8N   86.0W              88 86  240/  2/  4 1018.4F   1/ 6   2/ 6
PANAMA CITY BEAC           86 90  240/  8/ 10 1018.8
TOWER C                    85     280/  4/  4 1018.7F
28.5N   84.5W              86     310/  2/  6 1019.1F   1/ 5

$$
FLZ011-016>038-118-127-128-134-139-239-180100-
NORTH FLORIDA
  
CITY           SKY/WX    TMP DP  RH WIND       PRES   REMARKS
MARIANNA       LGT RAIN  86  76  71 SW6       30.05F HX  96           
TALLAHASSEE    CLOUDY    85  77  77 S3        30.07S HX  95           
PERRY          FAIR      77  75  95 E3        30.10S                  
LIVE OAK       CLEAR     75  75 100 CALM      30.10S                  
CROSS CITY     LGT RAIN  74  73  96 CALM      30.10S                  
LAKE CITY      RAIN      72  72 100 SE5       30.11S                  
GAINESVILLE    FAIR      74  72  93 VRB5      30.13R                  
WILLISTON        N/A    N/A N/A N/A MISG        N/A                   
PALATKA        FAIR      77  73  88 CALM      30.10F                  
MAYPORT NAS    MOCLDY    83  72  69 W6        30.09S                  
JACKSONVILLE   MOCLDY    78  73  84 W6        30.09S                  
JAX NAS        MOCLDY    82  70  66 W5        30.10F                  
JAX CECIL      PTCLDY    79  72  78 SW5       30.10F                  
FERNANDINA BEA FAIR      79  73  81 W12       30.09F                  
ST AUGUSTINE   CLOUDY    80  74  81 CALM      30.11S                  
PALM COAST     FAIR      80  72  77 NW7       30.11R                  

STATION/POSITION SKY/WX   TEMP    WIND        PRES    WAVE   SWELL
                          AIR SEA DIR/SP/G            HT/PER HT/PER
                          (F)     (DEG/KT/KT) (MB)    (FT/S) (FT/S)
SHELL POINT      NOT AVBL
KEATON BEACH               75      60/  5/  7 1019.1R
CEDAR KEY                  79      40/  8/ 10 1018.7F
FERNANDINA                 82 86  250/  9/ 12 1020.0F
30.7N   81.3W                 84                N/A     2/ 3
MAYPORT                    82 85  260/ 10/ 12 1019.5S
31.4N   80.9W              85 85  220/ 14/ 17 1017.8R   2/ 3   2/ 8
ST AUGUSTINE               82 79  290/  4/  5 1019.5S

$$
FLZ040-043>046-052-053-057-058-063-144-180100-
INTERIOR CENTRAL FLORIDA
  
CITY           SKY/WX    TMP DP  RH WIND       PRES   REMARKS
OCALA          FAIR      75  70  84 VRB3      30.13S                  
LEESBURG       FAIR      76  72  87 S5        30.13F                  
SANFORD        FAIR      77  73  87 W6        30.12R                  
ORLANDO EXEC   LGT RAIN  78  73  84 NW10      30.13R                  
ORLANDO INTL   MOCLDY    77  72  84 NW12      30.13R                  
KISSIMMEE      FAIR      79  73  82 NW17      30.14R                  
WINTER HAVEN   TSTM      75  72  90 N18       30.18R FOG              
LAKELAND       TSTM      73  72  94 E25G36    30.19R FOG              
BARTOW         RAIN      73  72  94 N20G25    30.13R VSB 1/4          
SEBRING        FAIR      86  73  65 E5        30.10S                  
OKEECHOBEE     FAIR      82  73  74 E3        30.10R                  

$$
FLZ041-047-054-059-064-141-147-180100-
EAST CENTRAL FLORIDA
  
CITY           SKY/WX    TMP DP  RH WIND       PRES   REMARKS
DAYTONA BEACH  MOCLDY    80  75  84 W10       30.11R                  
DELAND         FAIR      75  73  94 W3        30.11S                  
NEW SMYRNA BEA PTCLDY    81  72  74 W6        30.11R                  
JFK SPACE CTR  PTCLDY    84  65  52 S6        30.10R                  
TITUSVILLE     PTCLDY    84  75  74 VRB5      30.11R                  
CAPE CANAVERAL CLEAR     84  49  29 S7        30.09R                  
PATRICK AFB    FAIR      84  79  85 SE8       30.10R HX  95           
MELBOURNE      FAIR      86  72  62 S7        30.10R                  
VERO BEACH     FAIR      83  74  74 SE9       30.10R                  
FT PIERCE      FAIR      84  72  67 SE9       30.10R                  
STUART         PTCLDY    84  72  65 SE12      30.10R                  

STATION/POSITION SKY/WX   TEMP    WIND        PRES    WAVE   SWELL
                          AIR SEA DIR/SP/G            HT/PER HT/PER
                          (F)     (DEG/KT/KT) (MB)    (FT/S) (FT/S)
28.5N   80.2W              84 85  160/  6/  8 1018.9R   1/ 8   2/ 8
28.9N   78.5W              85 87  200/  4/  6   N/A     2/ 8   2/ 8
TRIDENT PIER               83 85  120/  5/  8 1020.3R
28.4N   80.5W                 83                N/A     2/ 3
27.5N   80.2W                 83                N/A     1/ 9

$$
FLZ050-056-061-142-242-148-248-149-249-151-251-155-255-
160-260-180100-
WEST CENTRAL FLORIDA
  
CITY           SKY/WX    TMP DP  RH WIND       PRES   REMARKS
CRYSTAL RIVER  LGT RAIN  73  72  94 E3        30.10F                  
INVERNESS      RAIN      73  73 100 N3        30.11F                  
BROOKSVILLE    FAIR      72  70  93 NE7       30.12F                  
CLEARWATER AIR FAIR      84  77  79 N5        30.11R                  
ST PETE CLEARW MOCLDY    84  77  79 N8        30.11R                  
TAMPA INTL     MOCLDY    85  77  77 N9        30.11R HX  95           
TAMPA EXEC     MOCLDY    79  70  73 NE5G18    30.12R                  
PLANT CITY     RAIN     N/A N/A N/A MISG      30.18R                  
MACDILL AFB    MOCLDY    85  76  73 NW8       30.09R THUNDER          
PETER O KNIGHT CLOUDY    86  79  79 N6        30.08F HX  99           
ST PETERSBURG  MOCLDY    86  77  74 NW10      30.08R HX  97           
SARASOTA       MOCLDY    86  76  71 NW9       30.07R HX  96           
VENICE         FAIR      88  77  70 VRB6      30.10R HX 100           

STATION/POSITION SKY/WX   TEMP    WIND        PRES    WAVE   SWELL
                          AIR SEA DIR/SP/G            HT/PER HT/PER
                          (F)     (DEG/KT/KT) (MB)    (FT/S) (FT/S)
27.3N   84.2W                 88                N/A     1/ 6
CLEARWATER BEACH           86 89  320/  6/  8 1019.9R
MIDDLE TAMPA BAY           85     320/  9/ 10 1019.8R
VENICE                     86 86  310/  7/  8 1019.2R

$$
FLZ066-069-070-075>078-162-262-165-265-180100-
SOUTHWEST FLORIDA AND KEYS
  
CITY           SKY/WX    TMP DP  RH WIND       PRES   REMARKS
PUNTA GORDA    LGT RAIN  74  71  91 N12       30.11S                  
FT MYERS       MOCLDY    82  73  74 N9        30.10R                  
SOUTHWEST INTL MOCLDY    82  74  76 NE3       30.10R                  
MARCO ISLAND   MOCLDY    79  74  84 MISG      30.10R                  
IMMOKALEE      FAIR      72  70  94 W3        30.08F                  
MARATHON       FAIR      87  75  67 E6        30.06S HX  96           
KEY WEST NAS   FAIR      88  75  65 E10       30.06R HX  97           
KEY WEST INTL  FAIR      86  75  69 SE10      30.06S HX  95           

STATION/POSITION SKY/WX   TEMP    WIND        PRES    WAVE   SWELL
                          AIR SEA DIR/SP/G            HT/PER HT/PER
                          (F)     (DEG/KT/KT) (MB)    (FT/S) (FT/S)
NAPLES                     85 89              1018.8R
26.0N   85.6W              86 86   70/  6/  8 1018.6R   2/ 5   2/ 5
DRY TORTUGAS               85     110/  4/  4 1017.8F
SAND KEY                   85     110/ 11/ 13 1016.6F
SOMBRERO KEY               85     110/ 11/ 13 1018.2
LONG KEY                   86                 1017.5

$$
FLZ067-068-071>074-168-172>174-180100-
SOUTHEAST FLORIDA 
  
CITY           SKY/WX    TMP DP  RH WIND       PRES   REMARKS
W PALM BEACH   FAIR      85  72  65 SE9       30.10R                  
BOCA RATON     CLEAR     86  73  66 SE8       30.09R                  
FT LAUDER-EXEC FAIR      85  74  69 SE9       30.09R                  
FT LAUDERDALE  FAIR      86  75  69 SE9       30.08R HX  95           
POMPANO BEACH  FAIR      86  75  69 SE9       30.09R HX  95           
PEMBROKE PINES FAIR      87  73  62 SE8       30.10R                  
OPA LOCKA      FAIR      86  74  67 SE10      30.09R                  
MIAMI          FAIR      86  72  62 SE9       30.09R                  
WEST KENDALL   FAIR      86  75  69 SE8       30.08R HX  95           
HOMESTEAD      FAIR      85  76  74 E5        30.07R                  

STATION/POSITION SKY/WX   TEMP    WIND        PRES    WAVE   SWELL
                          AIR SEA DIR/SP/G            HT/PER HT/PER
                          (F)     (DEG/KT/KT) (MB)    (FT/S) (FT/S)
PORT EVERGLADES            86     120/  3/  5 1018.9R
VIRGINIA KEY               86 90   90/  5/  8 1018.3
LAKE WORTH                 84 86  130/  8/  9 1019.9R
FOWEY ROCKS                85 86  120/  8/  8 1019.1R
SETTLEMENT POINT           85